SAUDISAT 1C (SO-50)

Last updated on Sun Jun 21 2026 00:03:20 GMT+0000 (Coordinated Universal Time)

1 27607U 02058C 26171.45947406 .00000719 00000+0 10244-3 0 9993 2 27607 64.5513 118.8607 0075194 261.8620 97.3951 14.83052787264944
UTC large
Height (km)
Speed (km/s)
/
Latitude / Longitude
Inclination (degrees)
Orbital Period (minutes)
Azimuth
Elevation
Range (km)
Doppler Factor

Next 0 passes for location: London (51.5072 / 0.1276)

No passes found over London.
SAUDISAT 1C (SO-50)